Regional Weather Roundup
Issued by NWS Newport/Morehead, NC

Current Version | Previous Version | Text Only | Print | Product List | Glossary On
Versions: 1 2 3 4 5 6 7 8 9 10 11 12 13 14 15 16 17 18 19 20 21 22 23 24 25 26 27 28 29 30 31 32 33 34 35 36 37 38 39 40 41 42 43 44 45 46 47 48 49 50
000
ASUS42 KMHX 232113
RWRMHX
WEATHER ROUNDUP FOR EASTERN NORTH CAROLINA
NATIONAL WEATHER SERVICE NEWPORT/MOREHEAD CITY NC
400 PM EST TUE JAN 23 2018

NOTE: "FAIR" INDICATES FEW OR NO CLOUDS BELOW 12,000 FEET
WITH NO SIGNIFICANT WEATHER AND/OR OBSTRUCTIONS TO VISIBILITY

NCZ015>017-031-032-045>047-102-103-232200-
NORTH COAST

CITY           SKY/WX    TMP DP  RH WIND       PRES   REMARKS
EDENTON        FAIR      71  57  62 W9G16     29.70S
ELIZABETH CITY FAIR      69  68  96 SW12      29.68R
KITTY HAWK     FAIR      62  62 100 S7        29.69R
MANTEO         FAIR      56  54  91 S18       29.71S

$$

NCZ045>047-081-094-103-104-232200-
CENTRAL COAST

CITY           SKY/WX    TMP DP  RH WIND       PRES   REMARKS
FRISCO         NOT AVBL

$$

NCZ095-097-098-100-101-232200-
SOUTHERN COAST

CITY           SKY/WX    TMP DP  RH WIND       PRES   REMARKS
BEAUFORT       FOG       56  56 100 SW17      29.78S VSB 1/4
CEDAR ISLAND   NOT AVBL
JACKSONVILLE   FAIR      74  56  53 W13G22    29.74F
PINEY ISLAND   NOT AVBL
WILMINGTON     FAIR      69  60  73 SW16G24   29.77F


$$

NCZ011>013-027>030-043-044-078>080-089-090>093-098-232200-
COASTAL PLAIN

CITY           SKY/WX    TMP DP  RH WIND       PRES   REMARKS
AHOSKIE        FAIR      69  43  39 SW5       29.68R
CLINTON        FAIR      72  48  42 W15G23    29.76R
ELIZABETHTOWN  NOT AVBL
GOLDSBORO      FAIR      72  50  47 W16G30    29.71S
GREENVILLE     FAIR      72  52  49 W18G28    29.75R
HAVELOCK       MOSUNNY   67  61  81 S13G23    29.76S
KENANSVILLE    FAIR      73  48  40 W15G32    29.74R
KINSTON        MOSUNNY   73  52  46 SW14G22   29.73R
NEW BERN       FAIR      72  56  57 SW14G26   29.73F
RICHLANDS      PTSUNNY   75  57  53 SW16G23   29.74F
ROCKY MOUNT    FAIR      70  42  36 SW16G25   29.71R
WASHINGTON     FAIR      74  55  51 W13G29    29.70S
WHITEVILLE     FAIR      73  46  37 W10G17    29.79R

$$

AMZ130-135-150-152-154-156-158-170-250-252-270-ANZ085-086-088-633-658-670-232200-
MARINE OBSERVATIONS

STATION/POSITION TIME  TEMP    WIND        PRES    WAVE   SWELL
                       AIR SEA DIR/SP/G            HT/PER HT/PER
                 (UTC) (F)     (DEG/KT/KT) (MB)    (FT/S) (FT/S)
CHESAPEAKE LIGHT NOT AVBL
64 E VA BEACH    2050   59 56  210/ 21/ 25 1005.2    9/ 8
DUCK             2048   62 42  200/ 16/ 19 1004.5
2 E DUCK         2030      42                N/A     4/ 8
OREGON INLET     2042   50 46  200/ 17/ 19 1006.4
13E OREGON INLT  2048      41                N/A     8/ 8   5/ 8
HATTERAS CG      2048   62 55  230/ 13/ 22 1007.5
DIAMOND BUOY     2050   68     230/ 23/ 31   N/A    10/ 8
CAPE LOOKOUT     2100          220/ 15/ 19 1008.7
BEAUFORT LAB     2048   55 49  210/ 11/ 16 1008.3
30 SE NEW RVR IN 2008   62 57  220/ 19/ 23 1008.8
30 SE NEW RVR IN 2100      57                N/A     8/ 8
27 SE WRIGHTSVLE 2008   60 60  220/ 25/ 33 1009.5
5 SE WRIGHTSVLE  2008   53 48  230/ 14/ 17 1008.7
225 S CAPE HAT   2050   72 70  190/ 21/ 23 1014.6    7/ 6   2/10
41 SE CHARLESTON 2100   67     220/ 21/ 25 1011.9

$$



USA.gov is the U.S. government's official web portal to all federal, state and local government web resources and services.